EZY24YG EGNM-EGAA

Flight info

Callsign EZY24YG
Flight time N/A
Altitude 24000
Route NELSA DCT CROFT Y70 KOLID L70 GUNTU Z196 DIGMA M146 IPSET P6 BELZU
Aircraft A20N/M-SDE2E3FGHIRWXY/LB1

Departure

Time 2026-05-04 14:32
Airport Leeds Bradford Airport (EGNM)

Arrival

Time N/A
Airport Belfast International Airport (EGAA)
Time Latitude Longitude Altitude Speed Heading
2026-05-04 13:55 53.86878 -1.65692 664 ft 0 kts
2026-05-04 14:22 53.86864 -1.65694 665 ft 2 kts
2026-05-04 14:23 53.86834 -1.65694 666 ft 2 kts
2026-05-04 14:23 53.86820 -1.65695 666 ft 1 kts
2026-05-04 14:23 53.86810 -1.65697 666 ft 1 kts 47°
2026-05-04 14:24 53.86807 -1.65712 667 ft 1 kts 102°
2026-05-04 14:24 53.86809 -1.65737 667 ft 2 kts 88°
2026-05-04 14:24 53.86809 -1.65762 668 ft 2 kts 93°
2026-05-04 14:24 53.86810 -1.65787 668 ft 2 kts 91°
2026-05-04 14:25 53.86811 -1.65813 669 ft 2 kts 92°
2026-05-04 14:25 53.86811 -1.65841 670 ft 0 kts 92°
2026-05-04 14:25 53.86811 -1.65840 670 ft 0 kts 92°
2026-05-04 14:28 53.86811 -1.65831 669 ft 2 kts 92°
2026-05-04 14:28 53.86796 -1.65777 668 ft 6 kts 141°
2026-05-04 14:28 53.86755 -1.65719 668 ft 8 kts 125°
2026-05-04 14:28 53.86738 -1.65597 665 ft 13 kts 92°
2026-05-04 14:29 53.86597 -1.65431 662 ft 14 kts 184°
2026-05-04 14:29 53.86428 -1.65456 668 ft 10 kts 181°
2026-05-04 14:30 53.86355 -1.65458 670 ft 10 kts 181°
2026-05-04 14:30 53.86287 -1.65461 672 ft 8 kts 181°
2026-05-04 14:30 53.86241 -1.65519 676 ft 3 kts 307°
2026-05-04 14:31 53.86250 -1.65534 677 ft 0 kts 314°
2026-05-04 14:32 53.86275 -1.65576 677 ft 20 kts 316°
2026-05-04 14:32 53.86608 -1.66077 679 ft 106 kts 317°
2026-05-04 14:32 53.87335 -1.67177 794 ft 163 kts 317°
2026-05-04 14:32 53.88206 -1.68492 1468 ft 173 kts 317°
2026-05-04 14:33 53.89032 -1.69900 2433 ft 171 kts 310°
2026-05-04 14:33 53.89761 -1.71440 3181 ft 174 kts 305°
2026-05-04 14:33 53.90260 -1.73389 3684 ft 192 kts 280°
2026-05-04 14:33 53.90227 -1.75719 4197 ft 210 kts 262°
2026-05-04 14:34 53.89838 -1.78241 4631 ft 235 kts 249°
2026-05-04 14:34 53.89020 -1.80772 5217 ft 255 kts 234°
2026-05-04 14:34 53.87894 -1.83136 5934 ft 268 kts 231°
2026-05-04 14:34 53.86677 -1.85561 6589 ft 270 kts 230°
2026-05-04 14:35 53.85473 -1.87955 6938 ft 271 kts 230°
2026-05-04 14:35 53.84383 -1.90562 6988 ft 270 kts 249°
2026-05-04 14:35 53.84143 -1.93672 6998 ft 269 kts 278°
2026-05-04 14:35 53.84795 -1.96621 7010 ft 269 kts 300°
2026-05-04 14:36 53.85759 -1.99318 7009 ft 270 kts 300°
2026-05-04 14:36 53.86452 -2.02249 6999 ft 270 kts 278°
2026-05-04 14:36 53.86523 -2.05450 7012 ft 270 kts 269°
2026-05-04 14:36 53.86447 -2.08620 7003 ft 271 kts 268°
2026-05-04 14:37 53.86384 -2.11785 7009 ft 270 kts 269°
2026-05-04 14:37 53.86353 -2.14962 7006 ft 270 kts 270°
2026-05-04 14:37 53.86069 -2.18078 6993 ft 270 kts 248°
2026-05-04 14:37 53.84994 -2.20662 7006 ft 273 kts 224°
2026-05-04 14:38 53.83554 -2.22795 7263 ft 280 kts 222°
2026-05-04 14:38 53.82091 -2.24940 8201 ft 282 kts 222°
2026-05-04 14:38 53.80636 -2.27089 9192 ft 283 kts 223°
2026-05-04 14:38 53.79148 -2.29302 10055 ft 287 kts 223°
2026-05-04 14:39 53.77665 -2.31519 10899 ft 292 kts 223°
2026-05-04 14:39 53.76142 -2.33798 11749 ft 295 kts 223°
2026-05-04 14:39 53.74594 -2.36117 12571 ft 299 kts 223°
2026-05-04 14:40 53.71463 -2.40799 14172 ft 307 kts 223°
2026-05-04 14:40 53.69865 -2.43185 14959 ft 311 kts 223°
2026-05-04 14:40 53.68244 -2.45603 15737 ft 314 kts 223°
2026-05-04 14:40 53.66621 -2.48024 16481 ft 318 kts 223°
2026-05-04 14:41 53.64965 -2.50490 17245 ft 320 kts 223°
2026-05-04 14:41 53.63379 -2.53135 17986 ft 322 kts 232°
2026-05-04 14:41 53.61209 -2.59702 19381 ft 328 kts 249°
2026-05-04 14:42 53.59647 -2.66211 20469 ft 339 kts 249°
2026-05-04 14:42 53.59078 -2.68580 20858 ft 342 kts 248°
2026-05-04 14:43 53.58198 -2.72298 21442 ft 348 kts 252°
2026-05-04 14:43 53.57634 -2.76276 22008 ft 352 kts 264°
2026-05-04 14:43 53.57561 -2.80401 22583 ft 355 kts 275°
2026-05-04 14:43 53.57756 -2.84546 23151 ft 360 kts 277°
2026-05-04 14:44 53.57997 -2.88758 23696 ft 364 kts 277°
2026-05-04 14:44 53.58231 -2.92986 24012 ft 367 kts 277°
2026-05-04 14:44 53.58381 -2.95847 24028 ft 368 kts 276°
2026-05-04 14:44 53.58528 -2.98763 24036 ft 368 kts 276°
2026-05-04 14:45 53.58672 -3.01702 24044 ft 368 kts 276°
2026-05-04 14:45 53.58754 -3.03394 24042 ft 368 kts 276°
2026-05-04 14:45 53.58958 -3.07666 24041 ft 369 kts 276°
2026-05-04 14:45 53.59160 -3.11939 24041 ft 369 kts 276°
2026-05-04 14:46 53.59424 -3.16261 24038 ft 368 kts 280°
2026-05-04 14:46 53.59855 -3.20469 24039 ft 367 kts 284°
2026-05-04 14:46 53.60368 -3.24652 24045 ft 367 kts 284°
2026-05-04 14:46 53.60895 -3.28847 24041 ft 367 kts 284°
2026-05-04 14:47 53.61420 -3.33047 24036 ft 367 kts 284°
2026-05-04 14:47 53.61941 -3.37234 24034 ft 367 kts 284°
2026-05-04 14:47 53.62459 -3.41439 24029 ft 367 kts 284°
2026-05-04 14:47 53.62969 -3.45601 24029 ft 367 kts 284°
2026-05-04 14:48 53.63485 -3.49831 24025 ft 367 kts 284°
2026-05-04 14:48 53.63992 -3.54004 24022 ft 365 kts 284°
2026-05-04 14:48 53.64532 -3.58181 24027 ft 364 kts 288°
2026-05-04 14:48 53.65342 -3.62141 24028 ft 362 kts 296°
2026-05-04 14:49 53.66486 -3.65886 24027 ft 359 kts 304°
2026-05-04 14:49 53.67888 -3.69400 24032 ft 358 kts 308°
2026-05-04 14:49 53.69329 -3.72811 24034 ft 358 kts 308°
2026-05-04 14:49 53.70775 -3.76219 24035 ft 358 kts 308°
2026-05-04 14:50 53.72207 -3.79615 24034 ft 358 kts 308°
2026-05-04 14:50 53.73640 -3.83037 24034 ft 358 kts 308°
2026-05-04 14:50 53.75080 -3.86489 24033 ft 358 kts 308°
2026-05-04 14:50 53.76505 -3.89918 24033 ft 358 kts 308°
2026-05-04 14:51 53.77920 -3.93330 24034 ft 358 kts 308°
2026-05-04 14:51 53.79348 -3.96776 24034 ft 357 kts 308°
2026-05-04 14:51 53.80770 -4.00218 24034 ft 357 kts 308°
2026-05-04 14:51 53.82181 -4.03636 24037 ft 357 kts 308°
2026-05-04 14:52 53.83586 -4.07041 24037 ft 357 kts 308°
2026-05-04 14:52 53.85012 -4.10506 24037 ft 358 kts 308°
2026-05-04 14:52 53.86427 -4.13949 24041 ft 358 kts 308°
2026-05-04 14:52 53.87851 -4.17421 24039 ft 358 kts 308°
2026-05-04 14:53 53.89270 -4.20883 24038 ft 358 kts 308°
2026-05-04 14:53 53.90692 -4.24364 24040 ft 358 kts 308°
2026-05-04 14:53 53.92092 -4.27794 24043 ft 358 kts 308°
2026-05-04 14:53 53.93510 -4.31274 24039 ft 358 kts 308°
2026-05-04 14:54 53.94924 -4.34745 24041 ft 358 kts 308°
2026-05-04 14:54 53.96335 -4.38212 24042 ft 358 kts 308°
2026-05-04 14:54 53.97742 -4.41676 24043 ft 358 kts 308°
2026-05-04 14:54 53.99153 -4.45146 24042 ft 357 kts 308°
2026-05-04 14:55 54.00559 -4.48599 24046 ft 357 kts 309°
2026-05-04 14:55 54.02056 -4.51980 24044 ft 357 kts 312°
2026-05-04 14:55 54.03657 -4.55176 24050 ft 355 kts 315°
2026-05-04 14:55 54.05316 -4.58277 24054 ft 355 kts 316°
2026-05-04 14:56 54.06982 -4.61357 24054 ft 356 kts 316°
2026-05-04 14:56 54.08642 -4.64429 24051 ft 356 kts 316°
2026-05-04 14:56 54.10336 -4.67569 24055 ft 355 kts 315°
2026-05-04 14:56 54.11991 -4.70653 24053 ft 354 kts 315°
2026-05-04 14:57 54.13652 -4.73751 24053 ft 354 kts 315°
2026-05-04 14:57 54.15314 -4.76856 24053 ft 354 kts 315°
2026-05-04 14:57 54.16951 -4.79919 23867 ft 352 kts 315°
2026-05-04 14:57 54.18624 -4.83050 23131 ft 360 kts 315°
2026-05-04 14:58 54.20316 -4.86213 22474 ft 364 kts 315°
2026-05-04 14:58 54.21992 -4.89359 22026 ft 362 kts 314°
2026-05-04 14:58 54.23684 -4.92544 21602 ft 358 kts 314°
2026-05-04 14:58 54.25332 -4.95651 21201 ft 355 kts 314°
2026-05-04 14:59 54.26970 -4.98741 20783 ft 352 kts 314°
2026-05-04 14:59 54.28599 -5.01817 20367 ft 348 kts 314°
2026-05-04 14:59 54.31806 -5.07884 19528 ft 342 kts 314°
2026-05-04 15:00 54.33400 -5.10907 18882 ft 347 kts 314°
2026-05-04 15:00 54.35025 -5.13985 18060 ft 355 kts 314°
2026-05-04 15:00 54.36696 -5.17158 17234 ft 362 kts 314°
2026-05-04 15:01 54.40097 -5.23632 15590 ft 373 kts 313°
2026-05-04 15:01 54.41838 -5.26956 14765 ft 376 kts 313°
2026-05-04 15:01 54.43570 -5.30267 13936 ft 379 kts 313°
2026-05-04 15:01 54.45338 -5.33638 13114 ft 381 kts 314°
2026-05-04 15:02 54.47151 -5.36909 12291 ft 383 kts 314°
2026-05-04 15:02 54.48987 -5.40180 11471 ft 383 kts 315°
2026-05-04 15:02 54.50846 -5.43491 10692 ft 382 kts 314°
2026-05-04 15:02 54.52537 -5.46896 10222 ft 372 kts 308°
2026-05-04 15:03 54.54060 -5.50410 10062 ft 354 kts 307°
2026-05-04 15:03 54.55464 -5.53731 10058 ft 333 kts 306°
2026-05-04 15:03 54.56770 -5.56834 10053 ft 314 kts 306°
2026-05-04 15:03 54.58011 -5.59785 10050 ft 296 kts 306°
2026-05-04 15:04 54.59196 -5.62599 9936 ft 284 kts 307°
2026-05-04 15:04 54.60356 -5.65348 9356 ft 289 kts 306°
2026-05-04 15:04 54.61561 -5.68208 8529 ft 302 kts 306°
2026-05-04 15:04 54.62806 -5.71161 7696 ft 312 kts 306°
2026-05-04 15:05 54.64087 -5.74205 6864 ft 320 kts 306°
2026-05-04 15:05 54.65397 -5.77322 6022 ft 320 kts 306°
2026-05-04 15:05 54.66662 -5.80337 5203 ft 310 kts 306°
2026-05-04 15:05 54.67896 -5.83282 4356 ft 299 kts 306°
2026-05-04 15:06 54.69083 -5.86119 3535 ft 289 kts 306°
2026-05-04 15:06 54.70231 -5.88864 2876 ft 275 kts 306°
2026-05-04 15:06 54.71299 -5.91420 2532 ft 253 kts 306°
2026-05-04 15:07 54.72617 -5.96312 2469 ft 221 kts 262°
2026-05-04 15:07 54.72073 -5.98709 2489 ft 208 kts 245°
2026-05-04 15:07 54.71412 -6.00818 2472 ft 191 kts 245°
2026-05-04 15:07 54.70826 -6.02799 2347 ft 181 kts 248°